Weather History for Pecos, TX

Change the Weather History Date:

Friday, December 16, 2011

  Actual Average Record
Temperature  
Mean Temperature 40 °F -  
Max Temperature 47 °F 60 °F 82 °F (2006)
Min Temperature 32 °F 26 °F 10 °F (1972)
Degree Days  
Heating Degree Days 26    
Moisture  
Dew Point 32 °F    
Average Humidity 69    
Maximum Humidity 84    
Minimum Humidity 56    
Precipitation  
Precipitation 0.00 in - - ()
Sea Level Pressure  
Sea Level Pressure 30.38 in    
Wind  
Wind Speed 3 mph (NW)    
Max Wind Speed 8 mph    
Max Gust Speed -    
Visibility 10 miles    
Events      
Averages and records for this station are not official NWS values.
T = Trace of Precipitation, MM = Missing Value Source: NWS Daily Summary

Daily Weather History Graph

Daily Weather History Graph

Search for Another Location

Airport:

Trip Planner

Search our weather history database for the weather conditions in past years. The results will help you decide how hot, cold, wet, or windy it might be!

Date:

Astronomy

Dec. 16, 2011 Rise Set
Actual Time 7:46 AM CST 5:53 PM CST
Civil Twilight 7:19 AM CST 6:19 PM CST
Nautical Twilight 6:48 AM CST 6:50 PM CST
Astronomical Twilight 6:19 AM CST 7:19 PM CST
Moon No Moon Rise 11:53 AM CST (12/16)
Length of Visible Light 11h 00m
Length of Day
10h 07m
Waning Gibbous, 64% of the Moon is Illuminated
Dec 16
Waning Gibbous
Dec 17
Last Quarter
Dec 24
New
Jan 1
First Quarter
Jan 9
Full

Hourly Weather History & Observations

Time (CST) Temp. Windchill Dew Point Humidity Pressure Visibility Wind Dir Wind Speed Gust Speed Precip Events Conditions
12:15 AM 41.5 °F - 30.2 °F 64% 30.29 in 10.0 mi Calm Calm - N/A   Clear
12:35 AM 41.2 °F - 29.8 °F 64% 30.29 in 10.0 mi Calm Calm - N/A   Clear
12:55 AM 39.0 °F 35.7 °F 29.1 °F 68% 30.30 in 10.0 mi NW 4.6 mph - N/A   Clear
1:15 AM 36.0 °F 32.1 °F 28.8 °F 75% 30.30 in 10.0 mi NW 4.6 mph - N/A   Clear
1:35 AM 35.2 °F 30.3 °F 28.9 °F 78% 30.30 in 10.0 mi NW 5.8 mph - N/A   Clear
1:55 AM 34.2 °F 30.0 °F 28.8 °F 81% 30.30 in 10.0 mi NW 4.6 mph - N/A   Clear
2:15 AM 33.1 °F - 28.8 °F 84% 30.30 in 10.0 mi Calm Calm - N/A   Clear
2:35 AM 33.8 °F 29.6 °F 29.1 °F 83% 30.30 in 10.0 mi NNW 4.6 mph - N/A   Clear
3:15 AM 32.9 °F 29.8 °F 28.4 °F 84% 30.31 in 10.0 mi North 3.5 mph - N/A   Clear
3:35 AM 32.9 °F - 28.4 °F 84% 30.31 in 10.0 mi Calm Calm - N/A   Clear
4:15 AM 33.3 °F - 28.6 °F 83% 30.32 in 10.0 mi Calm Calm - N/A   Mostly Cloudy
4:35 AM 33.4 °F - 29.1 °F 84% 30.32 in 10.0 mi Calm Calm - N/A   Overcast
4:55 AM 34.3 °F 31.4 °F 30.0 °F 84% 30.31 in 10.0 mi North 3.5 mph - N/A   Overcast
5:35 AM 35.4 °F 31.5 °F 30.2 °F 81% 30.32 in 10.0 mi NNE 4.6 mph - N/A   Overcast
6:15 AM 37.4 °F 32.8 °F 31.1 °F 78% 30.33 in 10.0 mi NNW 5.8 mph - N/A   Overcast
6:35 AM 37.2 °F 32.6 °F 31.1 °F 79% 30.33 in 10.0 mi NNW 5.8 mph - N/A   Overcast
6:55 AM 37.2 °F 34.7 °F 31.1 °F 79% 30.34 in 10.0 mi NNW 3.5 mph - N/A   Overcast
7:55 AM 37.4 °F 33.8 °F 31.1 °F 78% 30.37 in 10.0 mi NNW 4.6 mph - N/A   Overcast
8:15 AM 37.4 °F 32.1 °F 31.1 °F 78% 30.37 in 10.0 mi NNW 6.9 mph - N/A   Overcast
8:55 AM 37.4 °F 31.4 °F 31.1 °F 78% 30.39 in 10.0 mi NNW 8.1 mph - N/A   Overcast
9:15 AM 37.4 °F 32.1 °F 30.9 °F 77% 30.40 in 10.0 mi NNW 6.9 mph - N/A   Overcast
9:35 AM 37.4 °F 32.1 °F 31.1 °F 78% 30.40 in 10.0 mi NNW 6.9 mph - N/A   Overcast
9:55 AM 37.6 °F 32.3 °F 31.1 °F 77% 30.41 in 10.0 mi NNW 6.9 mph - N/A   Overcast
10:15 AM 37.9 °F 32.7 °F 31.5 °F 77% 30.40 in 10.0 mi NNW 6.9 mph - N/A   Overcast
10:35 AM 38.5 °F 35.0 °F 31.6 °F 76% 30.42 in 10.0 mi NNW 4.6 mph - N/A   Overcast
10:55 AM 39.2 °F 35.9 °F 31.8 °F 75% 30.42 in 10.0 mi NNW 4.6 mph - N/A   Overcast
11:15 AM 39.6 °F 36.3 °F 31.8 °F 74% 30.42 in 10.0 mi NNW 4.6 mph - N/A   Overcast
11:35 AM 40.3 °F 38.2 °F 32.0 °F 72% 30.42 in 10.0 mi NNW 3.5 mph - N/A   Overcast
11:55 AM 40.6 °F 37.5 °F 31.8 °F 71% 30.42 in 10.0 mi NNW 4.6 mph - N/A   Mostly Cloudy
12:15 PM 41.0 °F 39.0 °F 31.8 °F 70% 30.42 in 10.0 mi WNW 3.5 mph - N/A   Mostly Cloudy
12:35 PM 41.4 °F 39.4 °F 32.0 °F 69% 30.40 in 10.0 mi NW 3.5 mph - N/A   Overcast
12:55 PM 41.9 °F - 32.0 °F 68% 30.40 in 10.0 mi Calm Calm - N/A   Mostly Cloudy
1:15 PM 42.4 °F 38.8 °F 32.0 °F 67% 30.38 in 10.0 mi NNW 5.8 mph - N/A   Mostly Cloudy
1:35 PM 43.7 °F 40.3 °F 32.0 °F 63% 30.38 in 10.0 mi North 5.8 mph - N/A   Mostly Cloudy
2:15 PM 44.6 °F - 32.0 °F 61% 30.37 in 10.0 mi Calm Calm - N/A   Mostly Cloudy
2:35 PM 45.1 °F - 32.0 °F 60% 30.36 in 10.0 mi Calm Calm - N/A   Mostly Cloudy
2:55 PM 45.7 °F - 32.0 °F 59% 30.37 in 10.0 mi Calm Calm - N/A   Overcast
3:35 PM 46.6 °F - 32.0 °F 57% 30.37 in 10.0 mi Calm Calm - N/A   Mostly Cloudy
3:55 PM 46.6 °F - 32.0 °F 57% 30.36 in 10.0 mi Calm Calm - N/A   Scattered Clouds
4:15 PM 46.9 °F - 32.0 °F 56% 30.36 in 10.0 mi Calm Calm - N/A   Scattered Clouds
4:35 PM 46.9 °F - 32.0 °F 56% 30.36 in 10.0 mi Calm Calm - N/A   Scattered Clouds
4:55 PM 47.1 °F - 32.0 °F 56% 30.37 in 10.0 mi Calm Calm - N/A   Mostly Cloudy
5:15 PM 46.8 °F - 32.0 °F 57% 30.37 in 10.0 mi Calm Calm - N/A   Mostly Cloudy
5:35 PM 46.8 °F - 32.0 °F 57% 30.37 in 10.0 mi West 3.5 mph - N/A   Mostly Cloudy
5:55 PM 46.4 °F 44.3 °F 32.0 °F 57% 30.38 in 10.0 mi West 4.6 mph - N/A   Mostly Cloudy
6:15 PM 45.7 °F 43.4 °F 32.0 °F 59% 30.39 in 10.0 mi West 4.6 mph - N/A   Mostly Cloudy
6:35 PM 45.7 °F 43.4 °F 32.2 °F 59% 30.39 in 10.0 mi West 4.6 mph - N/A   Overcast
6:55 PM 45.7 °F 43.4 °F 32.5 °F 60% 30.40 in 10.0 mi West 4.6 mph - N/A   Overcast
7:15 PM 45.5 °F 44.2 °F 32.9 °F 61% 30.40 in 10.0 mi West 3.5 mph - N/A   Overcast
7:35 PM 45.5 °F 44.2 °F 33.3 °F 62% 30.41 in 10.0 mi West 3.5 mph - N/A   Overcast
7:55 PM 45.5 °F 44.2 °F 33.6 °F 63% 30.42 in 10.0 mi WSW 3.5 mph - N/A   Overcast
8:15 PM 45.5 °F - 33.8 °F 64% 30.42 in 10.0 mi Calm Calm - N/A   Overcast
8:35 PM 45.5 °F 44.2 °F 33.8 °F 64% 30.43 in 10.0 mi SW 3.5 mph - N/A   Overcast
8:55 PM 45.1 °F 42.8 °F 33.8 °F 65% 30.44 in 10.0 mi SSW 4.6 mph - N/A   Overcast
9:15 PM 45.0 °F 42.6 °F 33.8 °F 65% 30.44 in 10.0 mi SW 4.6 mph - N/A   Overcast
9:35 PM 45.0 °F 42.6 °F 33.8 °F 65% 30.44 in 10.0 mi SW 4.6 mph - N/A   Overcast
9:55 PM 45.0 °F 42.6 °F 33.8 °F 65% 30.44 in 10.0 mi SW 4.6 mph - N/A   Mostly Cloudy
10:15 PM 44.6 °F 42.2 °F 33.8 °F 66% 30.44 in 10.0 mi WSW 4.6 mph - N/A   Mostly Cloudy
10:35 PM 44.4 °F 42.9 °F 34.0 °F 67% 30.45 in 10.0 mi WSW 3.5 mph - N/A   Mostly Cloudy
10:55 PM 44.2 °F 42.7 °F 34.2 °F 68% 30.45 in 10.0 mi West 3.5 mph - N/A   Mostly Cloudy
11:15 PM 43.9 °F - 34.7 °F 70% 30.45 in 10.0 mi Calm Calm - N/A   Mostly Cloudy
11:35 PM 43.7 °F - 34.7 °F 71% 30.46 in 10.0 mi Calm Calm - N/A   Mostly Cloudy
11:55 PM 43.7 °F 42.1 °F 34.7 °F 71% 30.46 in 10.0 mi SW 3.5 mph - N/A   Mostly Cloudy